www.pogodaiklimat.ru
ПОГОДА в Каракуле

Архив погоды в Каракуле (Бухарская область, Узбекистан)

Время
и дата
06:20 28.05
06:30 28.05
06:40 28.05
06:50 28.05
07:00 28.05
07:10 28.05
07:20 28.05
07:30 28.05
07:40 28.05
07:50 28.05
08:00 28.05
08:10 28.05
08:20 28.05
08:30 28.05
08:40 28.05
08:50 28.05
09:00 28.05
09:10 28.05
09:20 28.05
09:30 28.05
09:40 28.05
09:50 28.05
10:00 28.05
10:10 28.05
10:20 28.05
10:30 28.05
10:40 28.05
10:50 28.05
11:00 28.05
11:10 28.05
11:20 28.05
11:30 28.05
11:40 28.05
11:50 28.05
12:00 28.05
12:10 28.05
12:20 28.05
12:30 28.05
13:00 28.05
13:10 28.05
13:20 28.05
13:30 28.05
13:40 28.05
13:50 28.05
14:00 28.05
14:20 28.05
14:30 28.05
14:40 28.05
14:50 28.05
15:00 28.05
15:10 28.05
15:20 28.05
15:30 28.05
15:40 28.05
15:50 28.05
16:00 28.05
16:10 28.05
16:20 28.05
16:30 28.05
16:40 28.05
16:50 28.05
17:00 28.05
17:10 28.05
17:20 28.05
17:40 28.05
17:50 28.05
18:00 28.05
18:10 28.05
18:20 28.05
18:30 28.05
18:40 28.05
18:50 28.05
19:00 28.05
19:10 28.05
19:20 28.05
19:30 28.05
19:40 28.05
19:50 28.05
20:00 28.05
20:10 28.05
20:20 28.05
20:30 28.05
20:40 28.05
20:50 28.05
21:00 28.05
21:10 28.05
21:20 28.05
21:30 28.05
21:40 28.05
21:50 28.05
22:10 28.05
22:30 28.05
22:40 28.05
22:50 28.05
23:00 28.05
23:10 28.05
23:20 28.05
23:30 28.05
23:50 28.05
00:00 29.05
00:10 29.05
00:20 29.05
00:30 29.05
00:40 29.05
01:00 29.05
01:10 29.05
01:20 29.05
01:30 29.05
01:40 29.05
01:50 29.05
02:00 29.05
02:10 29.05
02:20 29.05
02:30 29.05
02:40 29.05
02:50 29.05
03:00 29.05
03:10 29.05
03:20 29.05
03:30 29.05
03:40 29.05
03:50 29.05
04:00 29.05
04:10 29.05
04:20 29.05
04:30 29.05
04:40 29.05
04:50 29.05
05:00 29.05
05:10 29.05
05:20 29.05
05:30 29.05
05:40 29.05
06:00 29.05
06:10 29.05
06:20 29.05
06:30 29.05
06:40 29.05
06:50 29.05
07:00 29.05
07:10 29.05
07:20 29.05
07:30 29.05
07:40 29.05
Ветер
(напр.,м/с)
Видимость Явления Солнечная радиация
(Вт/м2)
Т
(С)
Тd
(С)
f
(%)
Тe
(С)
Тes
(С)
Комфортность P
(гПа)
Po
(гПа)
Тmin
(С)
Tmax
(С)
R
(мм)
С 3.2
{5.2}
104.4 +17.8 +2.3 36 +18 +20 1013.6 990.2 +17.8 +17.8
С 3.2
{5.3}
131.9 +18.0 +2.7 36 +18 +20 1013.5 990.1 +18.0 +17.8
С 2.8
{4.6}
161.0 +18.6 +3.4 36 +19 +22 1013.6 990.2 +18.6 +18.0
С 2.6
{4.7}
190.3 +19.3 +3.5 35 +20 +24 1013.6 990.2 +19.2 +18.6
С 3.1
{5.2}
220.6 +19.9 +4.1 35 +21 +25 комфорт 1013.6 990.2 +19.9 +19.3
С 2.9
{5.2}
251.3 +20.4 +4.9 36 +21 +26 комфорт 1013.7 990.3 +20.4 +19.9
С 3.2
{5.7}
282.5 +20.8 +4.8 35 +22 +27 комфорт 1013.7 990.3 +20.8 +20.4
С 3.1
{5.5}
316.4 +21.3 +4.9 34 +22 +28 комфорт 1013.7 990.3 +21.3 +20.8
С 3.3
{4.8}
348.1 +21.9 +5.6 35 +22 +28 комфорт 1013.8 990.4 +21.8 +21.3
С 3.1
{6.4}
380.2 +22.5 +5.2 33 +23 +30 комфорт 1013.9 990.5 +22.4 +21.9
С 3.4
{5.2}
413.6 +23.1 +5.7 32 +23 +30 комфорт 1014.1 990.7 +23.1 +22.5
С 3.4
{4.7}
442.1 +23.9 +5.9 31 +24 +32 комфорт 1014.2 990.8 +23.9 +23.1
С 3.7
{6.0}
475.7 +24.5 +6.2 31 +24 +32 комфорт 1014.3 990.9 +24.5 +23.9
С 3.7
{6.9}
508.7 +24.9 +5.5 29 +25 +34 комфорт 1014.3 990.9 +25.0 +24.5
С 3.9
{6.7}
539.5 +25.6 +5.9 28 +25 +34 комфорт 1014.4 991.0 +25.5 +24.9
С 3.9
{6.9}
565.1 +26.3 +5.6 27 +26 +36 жарко 1014.5 991.1 +26.3 +25.6
С 3.7
{7.4}
588.5 +26.9 +5.0 25 +26 +36 жарко 1014.5 991.1 +26.9 +26.3
С 4.4
{7.2}
615.5 +27.2 +5.4 25 +26 +36 жарко 1014.6 991.2 +27.2 +26.9
С 4.5
{8.4}
644.1 +27.6 +2.8 20 +26 +36 жарко 1014.6 991.2 +27.6 +27.1
СВ 4.6
{7.6}
674.7 +27.8 +3.4 21 +26 +36 жарко 1014.6 991.2 +27.8 +27.4
С 5.1
{9.9}
697.4 +27.9 +2.6 20 +26 +36 жарко 1014.7 991.3 +28.3 +27.8
СВ 5.3
{9.5}
719.7 +28.2 +1.6 18 +26 +36 жарко 1014.7 991.3 +28.3 +27.9
СВ 4.9
{9.5}
737.6 +28.5 +2.9 19 +27 +38 жарко 1014.7 991.3 +28.6 +28.1
СВ 5.7
{9.8}
752.2 +28.4 +2.1 18 +26 +36 жарко 1014.8 991.4 +28.8 +28.4
С 5.6
{9.6}
770.5 +28.8 +2.2 18 +27 +37 жарко 1014.8 991.4 +28.9 +28.4
СВ 4.6
{8.2}
785.4 +29.3 +2.3 18 +27 +39 жарко 1014.9 991.5 +29.3 +28.8
СВ 5.7
{9.7}
803.5 +29.0 +3.2 19 +27 +38 жарко 1014.9 991.5 +29.3 +29.0
СВ 5.2
{8.8}
820.3 +29.3 +3.6 19 +27 +39 жарко 1015.0 991.6 +29.4 +29.0
СВ 5.3
{8.9}
832.9 +29.5 +2.2 17 +27 +39 жарко 1015.2 991.7 +29.5 +29.2
СВ 5.3
{9.3}
846.7 +29.4 +4.0 20 +28 +40 жарко 1015.3 991.8 +29.6 +29.3
СВ 4.2
{7.2}
852.7 +30.0 +3.7 19 +28 +42 жарко 1015.3 991.8 +29.9 +29.4
С 5.0
{8.7}
860.7 +30.4 +1.6 16 +28 +41 жарко 1015.3 991.8 +30.3 +30.0
С 4.5
{8.8}
869.9 +30.2 +3.7 19 +28 +42 жарко 1015.3 991.8 +30.4 +30.1
С 4.5
{8.1}
819.0 +30.4 +3.2 18 +28 +41 жарко 1015.3 991.8 +30.5 +30.2
С 4.4
{7.2}
878.0 +30.7 +0.6 14 +28 +42 жарко 1015.4 991.9 +30.8 +30.1
С 5.5
{9.4}
881.2 +30.9 +1.2 15 +28 +40 жарко 1015.3 991.8 +31.0 +30.6
С 5.4
{9.4}
885.8 +30.9 +0.4 14 +28 +40 жарко 1015.2 991.7 +31.2 +30.8
СВ 5.2
{9.4}
893.3 +30.7 +2.2 16 +28 +41 жарко 1015.2 991.7 +31.0 +30.5
С 5.4
{9.4}
918.3 +30.9 -0.6 13 +28 +41 жарко 1015.0 991.6 +31.2 +30.8
С 4.7
{9.3}
921.8 +31.5 +1.8 15 +29 +43 жарко 1014.9 991.5 +31.5 +30.9
С 5.5
{10.0}
870.4 +31.2 +0.7 14 +28 +40 жарко 1014.8 991.4 +31.5 +31.3
СВ 5.0
{9.4}
872.1 +30.9 +2.5 16 +28 +41 жарко 1014.8 991.4 +31.2 +30.9
СВ 5.1
{9.6}
859.7 +30.9 +1.3 15 +28 +40 жарко 1014.8 991.4 +31.2 +30.9
СВ 5.1
{8.7}
852.7 +31.1 +1.2 15 +28 +40 жарко 1014.7 991.3 +31.2 +30.9
СВ 4.1
{7.8}
832.4 +31.5 +2.8 16 +29 +43 жарко 1014.6 991.2 +31.9 +31.1
СВ 4.2
{7.5}
804.3 +32.0 +0.3 13 +29 +42 жарко 1014.5 991.1 +32.0 +31.6
С 4.6
{8.2}
796.6 +32.1 -1.4 12 +29 +41 жарко 1014.5 991.1 +32.2 +32.0
С 4.2
{9.1}
778.0 +31.9 +1.7 15 +29 +42 жарко 1014.3 990.9 +32.4 +31.9
СВ 4.4
{9.0}
767.5 +31.9 +0.9 14 +29 +41 жарко 1014.3 990.9 +31.9 +31.5
СВ 5.1
{9.7}
746.8 +31.7 +1.7 15 +29 +40 жарко 1014.3 990.9 +32.0 +31.7
СВ 4.9
{8.5}
728.8 +31.6 +1.4 14 +29 +40 жарко 1014.3 990.9 +32.1 +31.5
С 4.2
{8.6}
708.1 +32.3 +2.3 15 +29 +41 жарко 1014.2 990.8 +32.4 +31.5
СВ 3.9
{7.0}
686.7 +31.9 +2.4 15 +29 +41 жарко 1014.1 990.7 +32.3 +31.7
СВ 5.5
{8.4}
661.8 +31.7 +2.2 15 +29 +38 жарко 1014.1 990.7 +32.2 +31.7
СВ 3.9
{7.5}
638.4 +32.4 +1.2 14 +29 +40 жарко 1014.1 990.7 +32.5 +31.6
СВ 4.6
{8.5}
617.7 +31.6 +2.8 16 +29 +39 жарко 1014.1 990.7 +32.4 +31.6
СВ 5.2
{9.3}
589.4 +31.7 +2.0 15 +29 +37 жарко 1014.0 990.6 +31.8 +31.5
СВ 4.7
{8.0}
565.3 +31.6 +1.3 14 +29 +38 жарко 1014.0 990.6 +31.9 +31.6
СВ 4.9
{9.2}
502.5 +31.7 +2.6 16 +29 +36 жарко 1014.0 990.6 +31.7 +31.5
СВ 4.3
{7.3}
474.2 +31.6 +1.2 14 +29 +37 жарко 1014.0 990.6 +31.8 +31.6
СВ 4.4
{7.3}
478.1 +31.5 +0.6 14 +29 +37 жарко 1013.9 990.5 +31.8 +31.5
СВ 4.0
{7.4}
449.6 +31.3 +1.5 15 +29 +36 жарко 1013.9 990.5 +31.5 +31.2
СВ 4.0
{6.8}
420.3 +31.7 +0.1 13 +29 +36 жарко 1013.9 990.5 +31.7 +31.2
СВ 4.5
{9.5}
390.8 +31.2 +0.4 14 +28 +34 жарко 1013.9 990.5 +31.7 +31.2
СВ 4.0
{7.2}
332.6 +31.0 +2.8 17 +29 +35 жарко 1013.9 990.5 +31.5 +30.9
СВ 4.4
{7.8}
301.8 +31.0 +0.8 14 +28 +33 жарко 1013.8 990.4 +31.1 +30.9
СВ 3.9
{6.7}
272.7 +31.0 +1.2 15 +28 +33 жарко 1013.8 990.4 +31.1 +30.8
СВ 4.8
{9.1}
243.5 +30.7 +0.3 14 +28 +32 жарко 1013.9 990.5 +31.0 +30.6
СВ 4.3
{8.0}
214.4 +30.4 +0.9 15 +28 +31 жарко 1013.8 990.4 +30.7 +30.5
СВ 3.9
{6.9}
184.0 +30.3 +1.2 15 +28 +31 жарко 1013.8 990.4 +30.5 +30.3
СВ 4.1
{8.1}
156.2 +30.4 -0.1 14 +27 +30 жарко 1013.8 990.4 +30.4 +30.3
СВ 3.4
{6.3}
129.6 +30.2 +1.5 16 +28 +30 жарко 1013.8 990.4 +30.4 +30.2
СВ 4.0
{7.0}
104.9 +29.9 +0.8 15 +27 +29 жарко 1013.8 990.4 +30.2 +29.9
СВ 3.2
{6.0}
81.5 +29.6 +0.9 16 +27 +28 жарко 1013.9 990.5 +29.9 +29.6
СВ 3.0
{5.1}
59.8 +29.3 +1.7 17 +27 +28 жарко 1013.9 990.5 +29.7 +29.3
СВ 2.6
{5.0}
39.5 +28.9 +1.6 17 +27 +28 жарко 1013.9 990.5 +29.3 +28.9
СВ 2.5
{4.6}
22.9 +28.6 +2.5 19 +27 +27 жарко 1013.9 990.5 +29.0 +28.6
СВ 2.4
{4.0}
10.9 +28.1 +2.9 20 +26 +26 жарко 1014.0 990.6 +28.6 +28.1
СВ 2.1
{3.8}
3.9 +27.7 +2.3 19 +26 +26 жарко 1014.1 990.7 +28.1 +27.8
СВ 2.3
{4.1}
0.2 +27.6 +2.3 20 +26 +26 жарко 1014.1 990.7 +27.8 +27.6
СВ 2.1
{3.6}
+27.2 +2.3 20 +26 +26 жарко 1014.1 990.7 +27.6 +27.2
СВ 2.1
{3.9}
+26.9 +2.4 20 +25 +25 комфорт 1014.1 990.7 +27.2 +26.9
СВ 2.1
{3.3}
+26.8 +2.8 21 +25 +25 комфорт 1014.1 990.7 +26.9 +26.8
СВ 2.0
{3.3}
+26.4 +2.9 22 +25 +25 комфорт 1014.2 990.8 +26.8 +26.4
СВ 2.0
{3.7}
+26.2 +2.7 22 +25 +25 комфорт 1014.2 990.8 +26.4 +26.2
СВ 1.9
{3.1}
+26.0 +2.9 22 +25 +25 комфорт 1014.3 990.9 +26.3 +25.9
СВ 2.0
{3.1}
+25.9 +3.5 23 +25 +25 комфорт 1014.3 990.9 +26.0 +25.9
СВ 2.4
{4.3}
+25.9 +2.9 23 +25 +25 комфорт 1014.4 991.0 +25.9 +25.8
СВ 2.1
{4.0}
+25.7 +3.6 24 +25 +25 комфорт 1014.4 991.0 +25.9 +25.7
СВ 2.2
{3.9}
+25.5 +3.4 24 +25 +25 комфорт 1014.4 991.0 +25.7 +25.5
СВ 2.3
{3.8}
+25.1 +3.4 24 +24 +24 комфорт 1014.5 991.1 +25.3 +25.1
СВ 2.2
{3.7}
+24.9 +3.5 25 +24 +24 комфорт 1014.5 991.1 +25.2 +24.9
СВ 2.1
{3.7}
+24.6 +4.1 26 +24 +24 комфорт 1014.5 991.1 +24.9 +24.6
СВ 2.5
{4.7}
+24.6 +3.3 25 +24 +24 комфорт 1014.5 991.1 +24.7 +24.5
СВ 3.2
{5.6}
+24.5 +3.5 26 +24 +24 комфорт 1014.5 991.1 +24.6 +24.5
СВ 3.2
{5.4}
+24.1 +4.0 27 +24 +24 комфорт 1014.5 991.1 +24.5 +24.1
СВ 3.0
{4.9}
+23.7 +4.1 28 +23 +23 комфорт 1014.5 991.1 +24.1 +23.8
СВ 2.9
{5.2}
+23.4 +4.2 29 +23 +23 комфорт 1014.5 991.1 +23.7 +23.4
СВ 2.7
{4.8}
+22.8 +4.5 30 +23 +23 комфорт 1014.6 991.2 +23.0 +22.7
С 3.4
{5.9}
+22.6 +4.8 31 +23 +23 комфорт 1014.6 991.2 +22.9 +22.6
СВ 3.7
{6.2}
+22.2 +4.4 31 +22 +22 комфорт 1014.6 991.2 +22.6 +22.2
СВ 3.6
{6.3}
+21.9 +4.5 32 +22 +22 комфорт 1014.6 991.2 +22.2 +21.9
С 3.3
{5.8}
+21.6 +4.7 33 +22 +22 комфорт 1014.6 991.2 +21.9 +21.6
С 3.1
{5.7}
+20.9 +5.4 36 +22 +22 комфорт 1014.6 991.2 +21.6 +20.9
СВ 3.3
{5.7}
+20.5 +5.2 37 +22 +22 комфорт 1014.5 991.1 +20.6 +20.5
СВ 3.5
{5.4}
+20.4 +5.0 36 +21 +21 комфорт 1014.5 991.1 +20.5 +20.4
СВ 3.2
{5.8}
+20.1 +4.9 37 +21 +21 комфорт 1014.5 991.1 +20.4 +20.1
СВ 3.4
{6.0}
+20.0 +4.9 37 +21 +21 комфорт 1014.5 991.1 +20.1 +20.0
СВ 3.4
{5.9}
+19.8 +4.7 37 +21 +21 комфорт 1014.5 991.1 +20.0 +19.8
СВ 3.5
{5.6}
+19.6 +4.6 37 +20 +20 1014.5 991.1 +19.9 +19.7
С 3.2
{5.5}
+19.6 +4.6 37 +20 +20 1014.5 991.1 +19.8 +19.6
С 3.2
{5.5}
+19.5 +4.3 37 +20 +20 1014.4 991.0 +19.6 +19.5
СВ 3.6
{6.8}
+19.6 +4.1 36 +20 +20 1014.5 991.1 +19.6 +19.4
СВ 3.8
{7.1}
+19.5 +4.1 36 +20 +20 1014.4 991.0 +19.6 +19.5
С 4.0
{7.2}
+19.3 +4.0 36 +20 +20 1014.4 991.0 +19.6 +19.3
СВ 3.8
{6.6}
+19.0 +4.0 37 +19 +19 1014.4 991.0 +19.3 +19.0
С 3.4
{5.6}
+18.8 +4.0 38 +19 +19 1014.4 991.0 +19.0 +18.7
СВ 3.4
{6.3}
+18.8 +3.7 37 +19 +19 1014.4 991.0 +18.8 +18.7
СВ 3.7
{6.6}
+18.7 +3.7 37 +19 +19 1014.4 991.0 +18.8 +18.7
СВ 3.3
{6.5}
+18.6 +3.8 38 +19 +19 1014.4 991.0 +18.7 +18.6
СВ 3.5
{6.2}
+18.5 +3.8 38 +19 +19 1014.5 991.1 +18.6 +18.5
СВ 3.5
{6.9}
+18.4 +3.6 37 +19 +19 1014.5 991.1 +18.5 +18.4
СВ 3.5
{5.8}
+18.3 +3.8 38 +18 +18 1014.5 991.1 +18.5 +18.3
СВ 3.6
{5.5}
+18.0 +3.7 39 +18 +18 1014.6 991.2 +18.3 +18.0
СВ 3.7
{6.4}
+18.0 +3.7 38 +18 +18 1014.6 991.2 +18.1 +18.0
СВ 3.3
{5.9}
+18.0 +3.6 38 +18 +18 1014.6 991.2 +18.0 +17.8
С 3.7
{7.5}
+18.0 +3.7 39 +18 +18 1014.7 991.3 +18.0 +17.9
С 3.6
{6.5}
+17.7 +3.8 40 +18 +18 1014.7 991.3 +18.0 +17.8
С 3.7
{5.9}
+17.7 +3.8 40 +18 +18 1014.8 991.4 +17.8 +17.7
С 3.0
{5.2}
+17.4 +3.8 40 +17 +17 1014.8 991.4 +17.7 +17.4
С 3.0
{5.2}
0.4 +17.3 +3.8 41 +17 +17 1014.9 991.5 +17.4 +17.3
С 2.7
{4.7}
4.1 +17.2 +3.9 41 +17 +17 1014.9 991.5 +17.3 +17.1
С 2.8
{5.2}
14.2 +17.2 +3.8 41 +17 +17 1015.0 991.6 +17.2 +17.1
С 2.8
{4.3}
51.1 +17.4 +3.9 41 +17 +18 1015.2 991.7 +17.4 +17.2
С 2.6
{4.3}
72.9 +17.5 +3.9 40 +18 +19 1015.2 991.7 +17.6 +17.4
С 2.8
{4.8}
109.2 +17.7 +4.0 40 +18 +20 1015.3 991.8 +17.7 +17.5
С 2.9
{4.5}
138.8 +18.0 +4.3 40 +18 +21 1015.3 991.8 +18.0 +17.7
С 3.0
{5.4}
167.6 +18.1 +4.1 39 +18 +21 1015.4 991.9 +18.1 +18.0
С 3.1
{4.6}
198.0 +18.5 +3.6 37 +19 +23 1015.4 991.9 +18.5 +18.1
С 3.5
{6.1}
227.9 +18.9 +3.6 36 +19 +23 1015.5 992.0 +18.9 +18.5
С 3.2
{5.1}
260.0 +19.3 +3.7 36 +20 +25 1015.5 992.0 +19.3 +18.9
С 2.9
{5.0}
291.7 +19.8 +4.0 35 +21 +27 комфорт 1015.6 992.1 +19.8 +19.3
С 3.3
{5.3}
325.2 +20.3 +3.4 33 +21 +27 комфорт 1015.6 992.1 +20.3 +19.8
СВ 3.4
{7.2}
356.9 +20.9 +3.7 32 +22 +28 комфорт 1015.6 992.1 +20.9 +20.3
Местоположение метеостанции Каракуль (Бухарская область, Узбекистан): широта 40.65 долгота 69.22 высота над уровнем моря 0 м.
В архиве по умолчанию представлена погода в Каракуле за последние 1-2 суток. Обновление информации о фактической погоде в базе происходит ежечасно! Архивные данные за месяц целиком и за предыдущие месяцы Вы можете получить, выбрав интересующий диапазон дат из раскрывающегося списка и нажав кнопку "Ввод!".
*Определитесь, кто Вы:
Внимание! Время в таблицах - местное (без учета летнего времени). Для получения всемирного времени необходимо вычесть поправку, которая равна 5 ч.
Смотрите также архив погоды на ближайших метеорологических станциях:
Партнеры нашего сайта:      
Пояснения к столбцам:
  • Ветер - указаны скорость ветра в м/с - средняя за 10 мин, порывы в срок и между сроками (в фигурных скобках) и направление, откуда дует ветер: С - северный,
  • СВ - северо-восточный, В - восточный, ЮВ - юго-восточный, Ю - южный, ЮЗ - юго-западный, З - западный, СЗ - северо-западный.
  • Видимость - горизонтальная дальность видимости в метрах или километрах. При видимости от 1 до 10 км при отсутствии осадков обычно наблюдается дымка, при ухудшении видимости до 1 км и менее - туман. В сухую погоду видимость может ухудшаться дымом, пылью или мглою.
  • Явления - указаны атмосферные явления, наблюдавшиеся в срок или в последний час перед сроком.
  • Солнечная радиация - мощность потока солнечного излучения на поверхность земли и предметов в Вт/м2.
  • T - Температура воздуха - температура, измеренная на высоте 2 м над землей.
  • Td - Температура точки росы - температура, при понижении до которой содержащийся в воздухе водяной пар достигнет насыщения.
  • f - Относительная влажность воздуха - влажноcть воздуха, измеренная на высоте 2 м над землей.
  • Te - Эффективная температура - температура, которую ощущает одетый по сезону человек в тени. Характеристика душности погоды. При расчете учитывается влияние влажности воздуха и скорости ветра на теплоощущения человека.
  • Tes - Эффективная температура на солнце - температура, которую ощущает человек, с поправкой на солнечный нагрев. Характеристика знойности погоды. Зависит от высоты солнца над горизонтом, облачности и скорости ветра. Ночью, в пасмурную погоду, а также при ветре 12 м/с и более поправка равна нулю.
  • P - Атмосферное давление - приведенное к уровню моря атмосферное давление.
  • Po - Атмосферное давление - измеренное на уровне метеостанции атмосферное давление.
  • Tmin - Минимальная температура - минимум температуры воздуха на высоте 2 м над землей.
  • Tmax - Максимальная температура - максимум температуры воздуха на высоте 2 м над землей.
  • R - Количество осадков - Количество выпавших осадков за период времени, мм. При наведении курсора мыши на число - период времени, за который выпало указанное количество осадков.